Total_Precipitation_Accumulation
1.96 2.39 2.51 2.60 2.92 3.15 3.31 3.27 3.48 3.88 4.15 4.57 4.61 4.87 5.37 5.70 5.80 5.86 5.83 5.76 5.70 5.71 5.56 5.40 5.52 5.38 5.11 4.87 4.82 4.81 4.69 4.32 4.28 4.30 3.82 3.13 2.69 2.45 2.26 2.28 2.36 2.19 2.17
1.81 2.26 2.47 2.81 3.11 3.21 3.43 3.53 3.65 4.14 4.64 5.23 5.80 6.20 6.65 6.67 6.77 6.70 6.55 6.21 6.07 6.01 5.83 5.85 5.67 5.48 5.34 5.06 4.85 4.81 4.70 4.34 4.39 4.40 4.35 3.55 2.99 2.34 1.84 1.96 2.01 2.00 2.08
1.87 2.15 2.45 2.82 3.13 3.26 3.47 3.61 3.93 4.58 5.45 6.05 6.56 7.12 7.47 7.16 6.86 6.56 6.45 6.34 6.29 6.23 6.15 6.13 5.86 5.64 5.38 5.03 4.75 4.65 4.56 4.42 4.41 4.27 4.37 3.77 3.06 2.55 2.07 1.80 1.71 1.79 1.94
1.84 2.11 2.40 2.69 2.95 3.28 3.41 3.64 4.28 4.97 5.63 6.28 6.93 7.49 7.74 7.73 7.47 6.89 6.41 6.02 5.76 5.57 5.53 5.58 5.46 5.28 4.96 4.71 4.39 4.29 4.24 4.38 4.19 4.13 3.90 3.60 3.23 3.00 2.59 2.16 1.90 1.85 1.85
1.79 2.00 2.24 2.47 2.58 2.96 3.42 3.75 4.40 5.10 5.75 6.53 7.28 7.68 7.87 7.85 7.48 6.70 5.91 5.37 5.07 4.81 4.64 4.69 4.60 4.45 4.24 4.06 3.99 4.03 3.96 3.89 3.73 3.62 3.63 3.66 3.56 3.18 2.83 2.47 2.18 2.07 1.95
1.66 1.75 2.00 2.17 2.43 2.81 3.25 3.75 4.12 4.75 5.51 6.14 6.68 6.85 7.00 6.94 6.51 6.08 5.58 5.20 4.72 4.26 3.92 3.82 3.74 3.57 3.41 3.39 3.42 3.51 3.51 3.55 3.54 3.45 3.32 3.29 3.28 3.06 2.94 2.62 2.32 2.28 2.09
1.60 1.83 2.07 2.04 2.34 2.69 3.12 3.61 4.03 4.46 5.02 5.55 6.03 6.26 6.42 6.34 5.85 5.40 4.96 4.55 4.05 3.66 3.34 3.14 3.09 2.97 2.91 2.90 3.07 3.19 3.13 3.11 3.16 3.14 3.05 2.99 2.91 2.85 2.84 2.91 2.65 2.32 2.03
1.65 1.75 1.86 1.96 2.29 2.59 2.89 3.31 3.65 4.04 4.28 4.54 4.96 5.25 5.44 5.32 4.96 4.48 3.98 3.67 3.35 3.02 2.83 2.71 2.64 2.55 2.48 2.43 2.63 2.77 2.83 2.82 2.87 2.83 2.94 2.89 2.75 2.74 2.72 2.77 2.84 2.69 2.34
1.55 1.69 1.84 1.99 2.20 2.56 3.03 3.25 3.28 3.48 3.70 3.99 4.16 4.21 4.32 4.24 4.01 3.70 3.37 3.07 2.77 2.48 2.33 2.27 2.28 2.25 2.23 2.27 2.45 2.50 2.44 2.50 2.53 2.60 2.72 2.70 2.65 2.69 2.67 2.76 2.87 2.94 2.74
1.57 1.66 1.78 2.01 2.09 2.14 2.53 2.91 2.97 3.07 3.17 3.31 3.38 3.30 3.41 3.33 3.28 3.11 2.85 2.59 2.40 2.18 2.11 2.06 2.06 2.09 2.05 2.07 2.19 2.28 2.32 2.30 2.26 2.37 2.54 2.57 2.54 2.68 2.76 2.86 2.88 2.90 2.88
1.74 1.71 1.73 1.80 1.95 2.03 2.19 2.46 2.70 2.74 2.82 2.99 3.00 2.89 2.99 2.98 2.99 2.85 2.65 2.51 2.47 2.34 2.17 2.05 2.11 2.10 2.02 1.99 2.01 1.95 2.03 2.12 2.15 2.19 2.29 2.39 2.47 2.61 2.64 2.71 2.71 2.77 2.82
1.65 1.62 1.59 1.59 1.67 1.86 2.10 2.27 2.42 2.44 2.53 2.67 2.79 2.85 2.89 2.81 2.71 2.52 2.41 2.33 2.21 2.07 2.03 2.01 2.05 2.02 1.92 1.90 1.83 1.72 1.78 1.88 1.96 2.02 2.10 2.16 2.23 2.31 2.26 2.37 2.40 2.44 2.55
1.77 1.65 1.58 1.59 1.61 1.71 1.82 2.00 2.24 2.35 2.38 2.40 2.40 2.58 2.62 2.50 2.36 2.27 2.23 2.17 2.04 1.99 2.01 2.04 2.04 2.02 1.95 1.90 1.84 1.79 1.74 1.65 1.68 1.78 1.83 1.89 1.96 1.93 1.86 1.90 1.90 2.01 2.12
1.92 1.68 1.63 1.62 1.62 1.70 1.73 1.78 1.92 2.11 2.26 2.34 2.49 2.55 2.48 2.35 2.25 2.08 1.90 1.81 1.75 1.81 1.91 1.88 1.83 1.80 1.73 1.63 1.66 1.71 1.71 1.61 1.58 1.57 1.58 1.57 1.53 1.50 1.56 1.58 1.62 1.76 2.03
1.79 1.66 1.66 1.72 1.71 1.66 1.65 1.67 1.84 1.93 2.15 2.27 2.27 2.23 2.17 2.13 2.11 2.05 1.89 1.71 1.60 1.54 1.66 1.64 1.63 1.58 1.48 1.37 1.41 1.48 1.49 1.51 1.48 1.45 1.41 1.34 1.31 1.33 1.32 1.26 1.40 1.67 1.94
1.68 1.65 1.60 1.69 1.64 1.57 1.51 1.47 1.62 1.68 1.84 1.99 1.99 1.94 1.93 2.02 1.99 1.92 1.79 1.68 1.59 1.52 1.54 1.52 1.46 1.36 1.18 1.21 1.23 1.21 1.25 1.35 1.41 1.38 1.28 1.20 1.17 1.15 1.15 1.14 1.24 1.41 1.57
1.84 1.86 1.89 1.92 1.76 1.63 1.55 1.57 1.62 1.66 1.73 1.82 1.78 1.81 1.83 1.81 1.80 1.65 1.56 1.60 1.64 1.53 1.44 1.36 1.27 1.16 1.10 1.08 1.06 1.11 1.17 1.26 1.33 1.36 1.36 1.17 1.00 1.11 1.13 1.15 1.20 1.23 1.31
2.17 2.18 2.14 1.99 1.81 1.69 1.66 1.67 1.63 1.67 1.76 1.74 1.66 1.62 1.65 1.61 1.60 1.59 1.56 1.55 1.55 1.49 1.41 1.29 1.18 1.12 1.02 0.99 0.98 1.02 1.05 1.21 1.25 1.25 1.27 1.28 1.23 1.17 1.19 1.17 1.18 1.17 1.22
2.14 2.07 2.01 1.90 1.77 1.64 1.59 1.57 1.58 1.56 1.56 1.50 1.47 1.40 1.41 1.48 1.50 1.48 1.56 1.55 1.46 1.40 1.31 1.22 1.20 1.18 1.05 0.97 0.93 0.98 1.05 1.18 1.17 1.09 1.08 1.07 1.06 1.08 1.17 1.24 1.31 1.30 1.26
1.74 1.80 1.83 1.76 1.64 1.52 1.43 1.44 1.49 1.47 1.41 1.37 1.39 1.31 1.29 1.34 1.40 1.43 1.47 1.42 1.36 1.33 1.21 1.15 1.18 1.18 1.14 0.99 0.88 0.96 0.98 1.02 1.04 1.05 1.00 0.95 0.90 0.90 0.93 1.00 1.21 1.35 1.26
1.48 1.49 1.66 1.72 1.56 1.35 1.29 1.38 1.39 1.38 1.24 1.22 1.30 1.32 1.30 1.29 1.31 1.34 1.38 1.34 1.30 1.32 1.31 1.28 1.27 1.26 1.18 1.04 0.90 0.88 0.86 0.87 0.91 0.95 0.94 0.89 0.79 0.70 0.73 0.86 1.04 1.13 1.11
1.37 1.35 1.49 1.49 1.33 1.23 1.27 1.35 1.34 1.24 1.17 1.23 1.35 1.35 1.34 1.23 1.20 1.37 1.40 1.34 1.31 1.28 1.34 1.35 1.33 1.31 1.25 1.08 0.94 0.86 0.80 0.82 0.87 0.92 0.92 0.85 0.78 0.69 0.73 0.80 0.92 0.98 1.10
1.25 1.23 1.31 1.32 1.22 1.19 1.26 1.34 1.30 1.20 1.26 1.35 1.39 1.42 1.33 1.30 1.29 1.37 1.38 1.33 1.30 1.22 1.21 1.22 1.23 1.18 1.11 1.02 0.93 0.88 0.82 0.81 0.82 0.82 0.82 0.82 0.82 0.83 0.90 0.95 0.98 1.06 1.26
1.18 1.18 1.27 1.25 1.19 1.13 1.14 1.19 1.11 1.11 1.28 1.44 1.42 1.41 1.41 1.39 1.34 1.30 1.24 1.21 1.20 1.15 1.10 1.09 1.11 1.03 0.98 0.91 0.80 0.76 0.74 0.75 0.78 0.80 0.86 0.95 1.03 1.04 1.04 1.08 1.17 1.24 1.32
1.15 1.18 1.29 1.29 1.15 1.06 1.03 1.03 1.07 1.16 1.32 1.37 1.35 1.33 1.35 1.33 1.30 1.19 1.11 1.10 1.04 0.93 0.88 0.86 0.85 0.83 0.82 0.80 0.78 0.72 0.71 0.69 0.71 0.80 0.93 1.11 1.20 1.21 1.17 1.14 1.17 1.22 1.24
1.13 1.18 1.18 1.14 1.06 0.95 0.92 0.96 1.01 1.06 1.21 1.22 1.19 1.18 1.23 1.24 1.18 1.13 1.04 0.94 0.84 0.83 0.76 0.72 0.74 0.75 0.78 0.74 0.65 0.64 0.66 0.67 0.79 0.87 1.07 1.20 1.24 1.27 1.17 1.12 1.09 1.08 1.09